Stündliche Wetter Holudenovka

Heute, 16 Juni, Mittwoch

Zeit Temperatur Niederschläge Wind Luftdruck Luftfeuchtigkeit
00:00 +17°C° 0 mm 3 m/S 740 mmHg 94%
01:00 +16°C° 0 mm 3 m/S 740 mmHg 94%
02:00 +16°C° 0 mm 3 m/S 740 mmHg 94%
03:00 +16°C° 0 mm 3 m/S 739 mmHg 94%
04:00 +17°C° 0 mm 3 m/S 739 mmHg 93%
05:00 +17°C° 0 mm 3 m/S 740 mmHg 91%
06:00 +18°C° 0 mm 3 m/S 740 mmHg 89%
07:00 +20°C° 0 mm 3 m/S 740 mmHg 84%
08:00 +21°C° 0 mm 3 m/S 740 mmHg 79%
09:00 +23°C° 0 mm 4 m/S 741 mmHg 74%
10:00 +25°C° 0 mm 4 m/S 741 mmHg 70%
11:00 +26°C° 0 mm 3 m/S 741 mmHg 66%
12:00 +27°C° 0 mm 3 m/S 741 mmHg 62%
13:00 +27°C° 0.2 mm 4 m/S 741 mmHg 61%
14:00 +27°C° 0.2 mm 4 m/S 742 mmHg 60%
15:00 +28°C° 0.2 mm 4 m/S 742 mmHg 60%
16:00 +27°C° 0.7 mm 3 m/S 742 mmHg 66%
17:00 +26°C° 0.7 mm 3 m/S 742 mmHg 71%
18:00 +25°C° 0.7 mm 3 m/S 742 mmHg 77%
19:00 +24°C° 0.2 mm 3 m/S 743 mmHg 80%
20:00 +21°C° 0.2 mm 2 m/S 743 mmHg 83%
21:00 +20°C° 0.2 mm 2 m/S 743 mmHg 85%
22:00 +19°C° 0 mm 2 m/S 744 mmHg 87%
23:00 +19°C° 0 mm 3 m/S 744 mmHg 89%

Morgen, 17 Juni, Donnerstag

Zeit Temperatur Niederschläge Wind Luftdruck Luftfeuchtigkeit
00:00 +18°C° 0 mm 3 m/S 744 mmHg 91%
01:00 +18°C° 0 mm 3 m/S 744 mmHg 92%
02:00 +17°C° 0 mm 3 m/S 745 mmHg 94%
03:00 +17°C° 0 mm 3 m/S 745 mmHg 95%
04:00 +17°C° 0 mm 3 m/S 746 mmHg 93%
05:00 +17°C° 0 mm 3 m/S 746 mmHg 91%
06:00 +18°C° 0 mm 3 m/S 746 mmHg 90%
07:00 +19°C° 0 mm 4 m/S 747 mmHg 84%
08:00 +20°C° 0 mm 5 m/S 747 mmHg 78%
09:00 +22°C° 0 mm 5 m/S 747 mmHg 72%
10:00 +22°C° 0 mm 5 m/S 748 mmHg 66%
11:00 +23°C° 0 mm 6 m/S 748 mmHg 61%
12:00 +23°C° 0 mm 6 m/S 748 mmHg 55%
13:00 +23°C° 0 mm 6 m/S 748 mmHg 54%
14:00 +23°C° 0 mm 6 m/S 749 mmHg 54%
15:00 +23°C° 0 mm 6 m/S 749 mmHg 53%
16:00 +22°C° 0 mm 6 m/S 749 mmHg 57%
17:00 +22°C° 0 mm 5 m/S 749 mmHg 62%
18:00 +21°C° 0 mm 5 m/S 750 mmHg 67%
19:00 +20°C° 0 mm 4 m/S 750 mmHg 71%
20:00 +18°C° 0 mm 4 m/S 750 mmHg 75%
21:00 +16°C° 0 mm 3 m/S 750 mmHg 79%
22:00 +14°C° 0 mm 3 m/S 751 mmHg 80%
23:00 +14°C° 0 mm 4 m/S 751 mmHg 82%

übermorgen, 18 Juni, Freitag

Zeit Temperatur Niederschläge Wind Luftdruck Luftfeuchtigkeit
00:00 +13°C° 0 mm 4 m/S 751 mmHg 83%
01:00 +13°C° 0 mm 3 m/S 751 mmHg 82%
02:00 +12°C° 0 mm 3 m/S 751 mmHg 81%
03:00 +12°C° 0 mm 3 m/S 752 mmHg 80%
04:00 +12°C° 0 mm 3 m/S 752 mmHg 79%
05:00 +13°C° 0 mm 3 m/S 752 mmHg 79%
06:00 +13°C° 0 mm 3 m/S 753 mmHg 78%
07:00 +15°C° 0 mm 4 m/S 753 mmHg 72%
08:00 +18°C° 0 mm 4 m/S 753 mmHg 66%
09:00 +20°C° 0 mm 5 m/S 754 mmHg 60%
10:00 +21°C° 0 mm 5 m/S 754 mmHg 56%
11:00 +21°C° 0 mm 5 m/S 754 mmHg 53%
12:00 +22°C° 0 mm 5 m/S 754 mmHg 50%
13:00 +22°C° 0 mm 4 m/S 754 mmHg 50%
14:00 +22°C° 0 mm 4 m/S 754 mmHg 50%
15:00 +23°C° 0 mm 4 m/S 754 mmHg 50%
16:00 +22°C° 0 mm 4 m/S 754 mmHg 55%
17:00 +22°C° 0 mm 4 m/S 754 mmHg 60%
18:00 +21°C° 0 mm 4 m/S 754 mmHg 64%
19:00 +19°C° 0 mm 3 m/S 754 mmHg 69%
20:00 +18°C° 0 mm 3 m/S 754 mmHg 73%
21:00 +16°C° 0 mm 3 m/S 754 mmHg 78%
22:00 +15°C° 0 mm 2 m/S 755 mmHg 79%
23:00 +14°C° 0 mm 2 m/S 755 mmHg 81%

19 Juni, Samstag

Zeit Temperatur Niederschläge Wind Luftdruck Luftfeuchtigkeit
00:00 +14°C° 0 mm 2 m/S 755 mmHg 83%
01:00 +13°C° 0 mm 2 m/S 755 mmHg 83%
02:00 +13°C° 0 mm 1 m/S 755 mmHg 83%
03:00 +13°C° 0 mm 1 m/S 755 mmHg 84%
04:00 +14°C° 0 mm 1 m/S 756 mmHg 81%
05:00 +15°C° 0 mm 1 m/S 756 mmHg 79%
06:00 +16°C° 0 mm 1 m/S 756 mmHg 76%
07:00 +18°C° 0 mm 1 m/S 756 mmHg 71%
08:00 +20°C° 0 mm 1 m/S 756 mmHg 66%
09:00 +20°C° 0 mm 2 m/S 756 mmHg 60%
10:00 +21°C° 0 mm 2 m/S 756 mmHg 57%
11:00 +23°C° 0 mm 2 m/S 756 mmHg 55%
12:00 +24°C° 0 mm 2 m/S 756 mmHg 52%
13:00 +25°C° 0 mm 2 m/S 755 mmHg 51%
14:00 +25°C° 0 mm 2 m/S 755 mmHg 50%
15:00 +26°C° 0 mm 1 m/S 755 mmHg 49%
16:00 +25°C° 0 mm 1 m/S 754 mmHg 52%
17:00 +25°C° 0 mm 1 m/S 754 mmHg 55%
18:00 +25°C° 0 mm 1 m/S 754 mmHg 59%
19:00 +23°C° 0 mm 1 m/S 754 mmHg 63%
20:00 +21°C° 0 mm 1 m/S 754 mmHg 67%
21:00 +18°C° 0 mm 0 m/S 754 mmHg 72%
22:00 +17°C° 0 mm 0 m/S 754 mmHg 74%
23:00 +16°C° 0 mm 0 m/S 754 mmHg 76%

20 Juni, Sonntag

Zeit Temperatur Niederschläge Wind Luftdruck Luftfeuchtigkeit
00:00 +16°C° 0 mm 0 m/S 754 mmHg 78%
01:00 +16°C° 0 mm 0 m/S 754 mmHg 79%
02:00 +16°C° 0 mm 1 m/S 754 mmHg 81%
03:00 +16°C° 0 mm 1 m/S 754 mmHg 83%
04:00 +18°C° 0 mm 1 m/S 754 mmHg 82%
05:00 +19°C° 0 mm 1 m/S 754 mmHg 82%
06:00 +20°C° 0 mm 1 m/S 754 mmHg 81%
07:00 +22°C° 0 mm 1 m/S 754 mmHg 77%
08:00 +23°C° 0 mm 1 m/S 754 mmHg 73%
09:00 +25°C° 0 mm 2 m/S 754 mmHg 69%
10:00 +26°C° 0 mm 1 m/S 754 mmHg 65%
11:00 +27°C° 0 mm 1 m/S 754 mmHg 62%
12:00 +28°C° 0 mm 1 m/S 753 mmHg 58%
13:00 +28°C° 0 mm 1 m/S 753 mmHg 57%
14:00 +29°C° 0 mm 1 m/S 753 mmHg 55%
15:00 +29°C° 0 mm 1 m/S 753 mmHg 53%
16:00 +29°C° 0 mm 1 m/S 752 mmHg 57%
17:00 +28°C° 0 mm 2 m/S 752 mmHg 61%
18:00 +28°C° 0 mm 2 m/S 752 mmHg 64%
19:00 +26°C° 0 mm 2 m/S 752 mmHg 69%
20:00 +24°C° 0 mm 2 m/S 752 mmHg 74%
21:00 +23°C° 0 mm 1 m/S 752 mmHg 79%
22:00 +21°C° 0 mm 2 m/S 752 mmHg 81%
23:00 +20°C° 0 mm 2 m/S 752 mmHg 84%

21 Juni, Montag

Zeit Temperatur Niederschläge Wind Luftdruck Luftfeuchtigkeit
00:00 +20°C° 0 mm 2 m/S 752 mmHg 86%
01:00 +20°C° 0 mm 2 m/S 752 mmHg 87%
02:00 +19°C° 0 mm 2 m/S 752 mmHg 88%
03:00 +19°C° 0 mm 2 m/S 752 mmHg 89%
04:00 +20°C° 0 mm 2 m/S 752 mmHg 88%
05:00 +21°C° 0 mm 1 m/S 752 mmHg 86%
06:00 +22°C° 0 mm 1 m/S 752 mmHg 84%
07:00 +24°C° 0 mm 1 m/S 752 mmHg 79%
08:00 +25°C° 0 mm 2 m/S 752 mmHg 74%
09:00 +27°C° 0 mm 2 m/S 752 mmHg 69%
10:00 +28°C° 0 mm 2 m/S 752 mmHg 64%
11:00 +28°C° 0 mm 2 m/S 751 mmHg 60%
12:00 +29°C° 0 mm 2 m/S 751 mmHg 56%
13:00 +30°C° 0 mm 1 m/S 751 mmHg 53%
14:00 +30°C° 0 mm 1 m/S 751 mmHg 50%
15:00 +31°C° 0 mm 1 m/S 750 mmHg 48%
16:00 +30°C° 0 mm 1 m/S 750 mmHg 52%
17:00 +30°C° 0 mm 1 m/S 750 mmHg 56%
18:00 +30°C° 0 mm 1 m/S 750 mmHg 60%
19:00 +28°C° 0 mm 1 m/S 750 mmHg 64%
20:00 +26°C° 0 mm 2 m/S 750 mmHg 67%
21:00 +25°C° 0 mm 2 m/S 750 mmHg 71%
22:00 +24°C° 0 mm 2 m/S 750 mmHg 72%
23:00 +24°C° 0 mm 2 m/S 750 mmHg 73%
Mehr zeigen

Wir brauchen deine Erlaubnis

Meteoprog und unser Service Anbieter werden persönliche Daten aufbewahren, so wie Cookies, Geräte Bezeichnung oder ähnliche Technologien von deinem Gerät und Prozess, so wie Persönliche Daten Inhalte und Werbungen, genauso wie social Media und den Verkehr zu analysieren.

  • Aufbewahrung und/oder Zugang zu deiner Geräte Informationen.

    Cookies, Geräte Bezeichnung oder andere Informationen, können aufbewahrt oder Zugang zu deinem Gerät erhalten, für den Grund, der oben angegeben wird.

  • Personalisierte Werbung und Inhalte, Messungen, Einblick in das Publikum und Produkt Entwicklung.

    Werbungen und Inhalte können personalisiert werden, basierend auf ein Profil. Mehr Daten können besser personalisierte Werbungen und Inhalte hinzufügen. Werbung und Inhalte können gezeigt und gemessen werden. Einblicke über das Publikum, welche die Werbung gesehen haben und den Inhalt, können abgeleitet werden. So wie Daten können genutzt werden, um es zu verbessern oder die Benutzer Erfahrung zu verbessern das System und die Software.

Wenn du “Ich stimme zu” klickst, erlaubst du uns, die Cookies zu benutzen die Geräte Bezeichnung, den Web oder ähnliche Technologien zu benutzen. Deine Settings, können in deinem Gerät bei deinem Browser geändert werden.

Für den bestimmten Zweck, berechtigten Interessen beruhen darauf, mehr als auf den Inhalt. Du kannst mehr darüber in unseren Privaten und Cookie Politik lesen.